Vorticity
-1 6 -4 17 27 2 13 9 2 3 2 5 5 7 6 2 4 3 5 3 0 3 4 5 7 9 11 9 7 11 8 6 7 4 5 6 8 5 7 9 14 22 34 33 21 18 15 8 1 5 3 7 15 15
39 1 9 19 31 -3 1 -6 -6 10 1 -2 4 5 1 5 5 8 7 2 0 3 4 5 12 10 7 8 8 11 6 6 5 4 5 5 7 6 6 9 13 15 25 36 17 14 12 10 6 3 3 9 12 3
4 -4 1 -5 8 10 35 27 6 5 -4 19 3 7 7 7 10 6 6 3 3 3 1 14 6 11 5 8 10 10 8 7 4 2 4 5 8 6 6 8 12 16 23 26 26 23 15 14 14 6 3 13 6 8
-9 -0 4 1 11 8 4 25 3 5 11 5 5 -2 -3 7 5 5 6 8 6 1 9 5 12 14 6 6 11 10 8 7 4 4 4 7 7 6 6 7 11 12 18 25 24 27 33 25 12 10 1 7 10 2
6 13 3 1 3 -6 1 9 18 8 -4 -2 -0 1 1 -2 3 5 -2 5 -3 2 6 10 16 8 8 8 11 10 7 6 4 6 5 7 6 5 7 7 10 13 11 21 23 34 26 35 22 10 5 3 8 11
15 2 7 12 2 4 5 6 6 3 18 -7 -4 1 -0 12 6 -3 14 18 11 1 7 16 15 6 7 10 13 11 6 5 5 5 6 7 5 6 6 8 8 13 14 20 20 28 32 15 50 13 9 2 7 11
5 -2 4 5 8 4 9 9 9 8 17 0 1 33 1 7 4 -6 14 6 1 1 13 15 11 6 8 10 12 8 6 5 5 5 5 9 4 8 5 8 8 13 14 20 22 25 31 26 33 31 8 5 5 7
2 1 2 4 7 11 6 4 -1 9 4 3 4 22 -1 0 -11 -3 17 -1 1 9 18 16 8 10 11 13 9 8 5 4 6 6 5 6 5 5 5 7 9 13 15 20 22 22 25 21 33 40 11 8 5 5
5 2 -3 -2 11 -5 1 2 4 12 -6 -0 15 8 13 -1 3 6 7 -3 5 16 17 13 9 8 17 9 8 6 5 7 6 5 7 8 5 4 6 8 10 12 15 20 22 22 20 25 43 35 16 11 6 7
-4 10 7 -0 2 2 8 1 -2 4 5 15 5 14 9 -1 15 13 -1 3 7 20 15 8 6 14 21 7 2 3 6 4 5 5 5 6 5 4 7 9 11 12 14 17 25 22 20 17 35 45 18 12 7 7
9 9 0 6 6 7 7 7 3 10 13 7 2 11 -1 4 4 -4 2 -1 13 20 10 10 8 15 14 -2 -6 1 4 4 6 7 7 5 4 5 8 10 12 13 14 20 28 23 23 10 33 48 17 13 8 7
13 9 6 10 9 9 3 -1 1 8 10 5 13 15 1 9 8 2 -5 14 25 12 11 11 11 14 14 5 -8 0 3 5 8 7 7 6 5 6 8 10 13 13 15 23 27 21 24 13 33 42 14 13 9 8
12 1 5 9 20 17 2 7 5 5 11 4 -0 5 -1 -3 5 -1 10 31 17 12 10 9 12 15 9 11 -4 3 7 9 8 6 5 6 6 6 9 11 13 13 13 26 24 22 25 16 25 39 13 15 10 7
19 13 21 18 19 6 14 3 8 1 -4 4 12 -0 -3 9 -0 13 28 14 6 11 13 11 14 6 7 5 -3 8 8 8 6 8 5 6 6 7 11 12 13 12 16 26 25 22 23 18 20 35 15 16 10 9
15 19 15 13 13 25 14 11 15 12 -7 0 1 -1 0 -1 18 30 15 10 12 12 12 19 13 9 8 -0 6 8 7 6 7 5 5 6 7 10 12 12 12 14 17 28 25 21 18 21 23 26 16 16 9 12
8 17 27 21 12 19 23 15 24 16 10 8 5 4 8 27 23 14 11 15 18 20 7 3 9 9 1 4 10 6 8 6 4 6 6 7 9 12 12 12 13 15 20 31 24 21 15 22 25 16 14 14 9 13
8 10 7 12 14 10 10 20 16 14 14 18 34 34 29 17 10 12 24 7 2 -1 6 7 7 3 6 8 9 9 7 5 4 6 7 10 12 12 12 12 15 16 24 31 23 20 16 19 27 13 9 13 8 13
1 22 11 15 10 9 12 12 14 12 12 21 29 23 16 13 15 13 2 4 -2 4 7 6 7 9 11 9 9 6 5 5 7 9 10 10 13 13 12 13 17 18 27 30 23 19 18 15 28 11 8 11 10 8
-6 21 24 12 13 12 16 24 27 20 22 19 6 10 6 6 2 7 16 -6 0 7 11 10 11 11 9 8 7 6 6 8 10 11 9 12 13 13 12 15 20 21 29 27 22 21 17 14 21 20 6 10 12 10
31 17 25 36 33 14 11 12 11 10 12 8 4 3 5 8 5 5 5 4 4 8 9 13 11 9 9 6 7 7 10 10 9 10 11 12 13 13 13 17 23 24 27 25 23 23 15 17 14 18 13 10 13 11
15 0 4 14 5 11 18 4 -4 -8 0 3 7 8 5 4 2 7 11 9 11 8 12 12 7 8 8 8 10 11 10 9 10 12 12 14 13 14 15 21 26 24 28 25 24 22 14 18 15 12 13 10 15 13
17 5 -8 0 10 6 9 5 5 7 10 3 4 4 6 9 10 10 12 17 10 6 13 11 5 8 9 11 11 11 9 11 12 11 13 14 16 14 19 25 25 23 29 22 26 21 15 16 15 12 12 13 13 15
12 13 3 12 16 5 -4 -1 3 10 9 6 6 8 10 10 12 12 13 8 8 14 7 7 9 12 11 10 11 10 10 10 10 12 13 15 15 17 25 24 23 25 26 27 26 20 16 15 16 14 11 12 13 15
2 8 9 -0 -2 7 3 5 8 7 7 6 9 10 11 11 9 12 13 8 7 4 8 11 14 11 11 11 9 10 9 12 9 14 16 16 17 23 24 23 25 28 30 33 18 17 16 15 15 15 11 11 12 14
4 0 -1 5 6 8 2 2 7 3 3 4 9 11 13 15 13 15 7 5 10 14 14 11 9 11 10 9 8 10 12 10 14 16 17 19 22 25 23 22 26 33 34 18 16 15 14 16 15 14 13 12 11 13
5 4 5 4 10 11 10 8 10 11 11 12 13 12 13 12 11 7 10 11 11 10 9 10 10 9 8 8 9 12 11 12 17 18 21 23 26 27 19 20 29 32 18 11 16 14 14 16 15 14 13 13 11 13
8 1 9 11 9 12 15 12 11 12 12 14 11 11 8 10 10 11 12 10 10 10 9 9 7 7 7 9 12 9 10 12 19 23 27 27 26 24 18 20 32 24 11 12 16 15 16 15 14 15 14 14 13 12
7 9 5 9 10 10 8 10 9 11 12 8 13 9 13 10 9 12 10 10 8 8 8 6 6 9 10 12 9 8 9 11 19 27 27 25 26 26 21 19 30 21 9 11 14 14 16 17 13 15 14 14 14 13
10 9 6 7 9 11 10 11 12 13 11 13 13 13 11 11 10 10 7 8 6 7 8 9 11 10 13 11 8 9 8 10 18 27 25 23 23 28 23 19 28 19 10 10 13 14 13 15 15 15 15 15 13 13
12 14 15 16 15 15 13 13 14 12 12 10 10 9 8 9 9 8 7 7 9 11 12 11 10 13 11 11 9 11 8 11 15 24 23 19 23 29 22 23 23 19 11 11 11 15 13 14 16 15 16 15 12 13
13 14 14 13 12 12 11 11 10 10 9 8 9 9 7 7 8 7 8 12 13 12 11 11 13 12 12 12 12 11 9 12 13 17 22 19 20 27 22 22 23 16 14 12 12 14 13 12 15 17 15 17 15 13
14 11 11 9 8 7 8 8 7 7 7 7 6 8 8 9 12 13 11 13 12 11 12 12 13 12 14 13 13 12 11 11 13 13 17 17 23 22 26 17 29 16 14 13 11 12 11 11 14 15 16 17 16 15
7 7 7 7 7 6 6 6 6 8 10 10 11 12 12 12 12 12 12 13 12 12 12 14 15 14 12 13 12 13 13 11 13 12 14 14 21 18 23 18 21 25 12 17 15 13 11 9 9 15 14 20 15 15
Height
5710 5715 5719 5722 5726 5730 5734 5736 5737 5739 5740 5740 5740 5740 5739 5738 5736 5734 5732 5729 5725 5720 5714 5707 5699 5692 5686 5679 5671 5664 5655 5645 5636 5627 5617 5608 5597 5586 5576 5562 5552 5541 5532 5524 5517 5514 5513 5508 5507 5504 5501 5496 5492 5486
5700 5706 5709 5713 5717 5720 5723 5725 5727 5730 5732 5732 5731 5732 5730 5729 5728 5726 5724 5722 5718 5713 5708 5701 5693 5687 5680 5673 5665 5657 5650 5641 5632 5622 5613 5605 5595 5583 5573 5562 5550 5539 5529 5521 5516 5512 5508 5506 5505 5504 5502 5500 5496 5493
5690 5696 5701 5704 5708 5710 5713 5717 5718 5720 5722 5723 5723 5723 5722 5720 5718 5718 5716 5713 5711 5705 5701 5694 5687 5681 5674 5667 5660 5653 5645 5637 5628 5620 5611 5602 5593 5581 5570 5559 5547 5536 5524 5518 5512 5507 5502 5501 5501 5502 5502 5501 5499 5497
5679 5686 5690 5695 5699 5702 5705 5707 5709 5711 5714 5715 5715 5714 5713 5712 5710 5709 5707 5705 5702 5698 5693 5687 5680 5674 5667 5660 5654 5647 5641 5632 5624 5615 5607 5597 5588 5577 5567 5557 5545 5534 5524 5514 5506 5498 5494 5492 5495 5495 5498 5499 5500 5499
5667 5674 5679 5685 5690 5693 5696 5698 5700 5701 5703 5705 5706 5706 5705 5703 5702 5701 5698 5696 5694 5690 5684 5678 5672 5666 5660 5654 5648 5641 5635 5626 5618 5610 5602 5594 5585 5575 5564 5552 5541 5531 5519 5509 5501 5494 5489 5485 5486 5489 5492 5496 5498 5499
5655 5663 5669 5675 5679 5684 5688 5689 5691 5692 5694 5696 5694 5695 5696 5695 5693 5691 5689 5688 5684 5680 5675 5669 5664 5658 5653 5647 5641 5635 5628 5619 5612 5605 5597 5588 5580 5571 5561 5549 5538 5526 5514 5503 5497 5489 5485 5481 5479 5483 5486 5491 5495 5497
5644 5653 5659 5664 5670 5675 5677 5680 5682 5682 5683 5684 5684 5685 5686 5686 5683 5681 5680 5678 5675 5671 5665 5660 5656 5651 5645 5640 5635 5629 5621 5613 5606 5599 5590 5582 5574 5566 5554 5544 5532 5521 5510 5500 5491 5485 5479 5475 5473 5475 5481 5485 5490 5494
5633 5641 5649 5655 5660 5663 5666 5669 5672 5673 5673 5674 5673 5676 5676 5675 5672 5672 5670 5667 5664 5661 5656 5651 5647 5643 5638 5633 5628 5622 5615 5607 5599 5591 5584 5576 5567 5558 5549 5539 5526 5516 5505 5495 5486 5479 5474 5470 5467 5468 5474 5481 5485 5489
5621 5629 5637 5644 5649 5653 5658 5661 5662 5662 5662 5661 5663 5665 5665 5662 5661 5661 5659 5657 5654 5652 5646 5642 5638 5635 5630 5626 5621 5616 5608 5601 5593 5585 5577 5570 5561 5551 5542 5532 5521 5510 5500 5491 5482 5475 5470 5465 5461 5462 5467 5475 5480 5485
5607 5617 5626 5632 5637 5640 5644 5648 5650 5651 5654 5655 5654 5654 5653 5653 5650 5650 5648 5645 5644 5640 5636 5632 5629 5625 5623 5618 5613 5608 5601 5593 5586 5579 5570 5562 5554 5545 5536 5526 5515 5505 5495 5486 5478 5471 5466 5462 5458 5458 5463 5469 5475 5480
5594 5604 5612 5618 5622 5627 5630 5634 5637 5640 5643 5642 5642 5644 5643 5641 5639 5637 5636 5635 5632 5630 5626 5622 5619 5615 5612 5609 5604 5598 5590 5583 5578 5572 5563 5555 5547 5538 5529 5519 5509 5500 5490 5481 5474 5468 5463 5459 5455 5454 5459 5465 5471 5476
5580 5589 5598 5604 5608 5613 5619 5624 5628 5631 5632 5632 5632 5630 5627 5627 5626 5627 5625 5624 5621 5618 5616 5612 5609 5606 5603 5599 5595 5589 5582 5575 5568 5561 5554 5547 5539 5530 5521 5511 5501 5493 5483 5476 5470 5463 5460 5456 5454 5453 5456 5461 5467 5471
5567 5574 5583 5591 5596 5601 5607 5614 5616 5621 5621 5619 5618 5614 5614 5616 5614 5616 5615 5613 5609 5606 5605 5602 5599 5597 5593 5589 5584 5578 5572 5566 5559 5551 5543 5537 5528 5519 5511 5502 5494 5486 5477 5470 5465 5460 5457 5454 5452 5451 5455 5458 5463 5468
5554 5562 5570 5577 5582 5590 5597 5603 5609 5610 5607 5602 5602 5601 5603 5603 5605 5605 5603 5601 5598 5596 5594 5591 5589 5588 5583 5579 5573 5567 5561 5556 5550 5543 5534 5526 5517 5509 5501 5493 5485 5478 5470 5464 5459 5454 5452 5451 5449 5449 5452 5456 5460 5464
5543 5549 5557 5564 5574 5580 5586 5591 5594 5593 5588 5588 5590 5592 5594 5596 5594 5593 5591 5589 5587 5585 5584 5581 5580 5578 5574 5569 5562 5556 5550 5544 5539 5533 5525 5516 5507 5499 5491 5484 5476 5469 5463 5458 5453 5450 5448 5446 5446 5446 5448 5452 5456 5460
5535 5540 5549 5556 5563 5570 5575 5576 5575 5574 5575 5577 5579 5582 5586 5585 5582 5581 5580 5579 5577 5575 5574 5572 5570 5567 5563 5557 5553 5546 5541 5534 5529 5522 5514 5506 5497 5489 5482 5474 5466 5459 5455 5450 5446 5443 5442 5442 5442 5443 5445 5448 5452 5456
5526 5534 5540 5546 5553 5556 5557 5557 5558 5560 5563 5568 5574 5574 5573 5571 5570 5570 5569 5568 5566 5565 5564 5561 5559 5555 5550 5546 5541 5535 5529 5523 5517 5511 5502 5495 5487 5479 5471 5463 5456 5449 5446 5441 5438 5436 5436 5436 5436 5439 5441 5444 5448 5451
5521 5527 5533 5537 5542 5544 5543 5545 5550 5553 5558 5562 5561 5561 5560 5560 5559 5560 5558 5557 5556 5555 5552 5550 5547 5543 5539 5535 5528 5523 5516 5511 5506 5499 5491 5483 5476 5468 5460 5452 5444 5438 5434 5431 5429 5428 5428 5429 5430 5432 5435 5438 5442 5446
5514 5519 5521 5524 5528 5532 5535 5538 5541 5545 5547 5549 5549 5551 5551 5549 5548 5548 5548 5547 5546 5543 5541 5537 5535 5532 5527 5522 5516 5510 5504 5499 5493 5486 5478 5472 5463 5456 5447 5440 5432 5427 5422 5420 5419 5419 5420 5422 5423 5425 5428 5431 5435 5439
5500 5504 5510 5515 5519 5521 5524 5529 5532 5535 5537 5540 5540 5541 5541 5540 5540 5538 5537 5536 5534 5531 5529 5527 5524 5519 5514 5509 5504 5498 5492 5486 5480 5473 5465 5457 5450 5442 5435 5427 5421 5416 5412 5410 5408 5410 5412 5413 5415 5418 5421 5425 5428 5432
5493 5497 5504 5509 5513 5516 5519 5521 5524 5527 5529 5531 5531 5531 5531 5530 5529 5527 5526 5524 5522 5520 5518 5514 5509 5505 5501 5497 5491 5485 5480 5474 5467 5461 5453 5445 5436 5429 5422 5415 5409 5403 5401 5399 5399 5400 5403 5405 5408 5410 5414 5418 5421 5424
5489 5493 5497 5501 5505 5508 5512 5515 5516 5518 5520 5521 5521 5520 5520 5519 5518 5516 5514 5513 5510 5507 5504 5499 5494 5493 5489 5484 5478 5472 5467 5461 5453 5446 5440 5432 5424 5414 5408 5402 5395 5392 5390 5389 5389 5391 5394 5397 5400 5403 5407 5411 5414 5418
5482 5486 5489 5492 5497 5501 5505 5506 5509 5509 5511 5511 5510 5510 5509 5508 5506 5505 5503 5499 5496 5493 5489 5486 5483 5480 5475 5471 5466 5460 5453 5446 5439 5433 5425 5417 5409 5402 5395 5387 5384 5382 5379 5379 5381 5383 5386 5389 5392 5396 5400 5403 5407 5411
5475 5480 5484 5487 5490 5493 5497 5498 5499 5500 5500 5500 5500 5499 5498 5497 5494 5491 5488 5485 5483 5480 5478 5476 5472 5468 5463 5458 5452 5447 5441 5434 5426 5419 5411 5401 5394 5387 5380 5376 5373 5370 5369 5370 5373 5375 5378 5381 5385 5389 5393 5396 5400 5404
5471 5474 5479 5481 5484 5487 5489 5490 5490 5490 5490 5490 5489 5488 5486 5483 5480 5478 5476 5474 5472 5470 5467 5463 5459 5455 5450 5445 5439 5434 5428 5421 5414 5404 5395 5387 5379 5374 5370 5366 5363 5361 5362 5364 5366 5369 5372 5375 5378 5382 5385 5390 5393 5397
5466 5471 5475 5476 5477 5479 5480 5480 5480 5480 5479 5478 5476 5474 5472 5471 5470 5469 5466 5464 5462 5458 5455 5451 5447 5442 5438 5433 5428 5422 5416 5407 5398 5389 5381 5373 5368 5363 5360 5358 5356 5356 5357 5359 5361 5363 5366 5369 5372 5375 5379 5383 5386 5390
5460 5463 5465 5466 5467 5468 5469 5468 5467 5467 5465 5465 5464 5462 5461 5461 5460 5459 5456 5453 5450 5447 5442 5438 5434 5430 5426 5421 5416 5410 5401 5392 5383 5375 5368 5362 5357 5354 5352 5351 5350 5351 5352 5354 5356 5358 5360 5363 5366 5369 5372 5376 5379 5383
5454 5455 5456 5457 5457 5457 5456 5456 5456 5456 5455 5455 5454 5453 5452 5451 5450 5448 5445 5441 5437 5433 5430 5426 5422 5418 5413 5408 5401 5394 5386 5379 5372 5364 5358 5352 5348 5346 5345 5344 5344 5345 5347 5349 5351 5353 5355 5358 5360 5363 5366 5370 5373 5377
5446 5446 5447 5446 5446 5446 5447 5448 5448 5447 5448 5447 5445 5442 5441 5439 5438 5435 5431 5428 5424 5421 5418 5414 5410 5404 5398 5393 5387 5381 5375 5369 5363 5356 5350 5345 5341 5339 5338 5338 5338 5339 5342 5344 5346 5348 5350 5352 5354 5357 5360 5363 5366 5370
5440 5440 5440 5440 5441 5440 5439 5439 5438 5438 5436 5435 5433 5430 5427 5425 5424 5422 5419 5416 5412 5408 5405 5400 5395 5390 5385 5380 5375 5371 5366 5361 5355 5350 5344 5339 5335 5333 5332 5332 5332 5334 5336 5338 5340 5342 5344 5346 5348 5350 5353 5357 5360 5363
5430 5430 5430 5430 5430 5430 5429 5428 5427 5425 5424 5422 5420 5417 5415 5413 5411 5409 5406 5403 5399 5394 5390 5385 5380 5376 5372 5369 5365 5361 5357 5352 5347 5343 5338 5333 5330 5327 5326 5326 5326 5328 5330 5332 5334 5336 5338 5340 5342 5344 5347 5350 5353 5356
5422 5421 5421 5421 5419 5418 5417 5416 5415 5413 5411 5409 5408 5406 5404 5401 5398 5395 5390 5386 5382 5378 5374 5370 5367 5364 5360 5357 5353 5350 5346 5343 5339 5336 5331 5327 5324 5322 5320 5320 5320 5321 5323 5325 5328 5329 5331 5333 5336 5338 5341 5343 5346 5350
5415 5414 5413 5412 5410 5409 5407 5406 5405 5404 5401 5398 5395 5392 5388 5384 5381 5378 5374 5370 5367 5363 5360 5357 5354 5351 5348 5345 5342 5339 5336 5333 5330 5327 5324 5320 5317 5315 5313 5313 5313 5314 5316 5318 5320 5322 5325 5327 5329 5331 5334 5337 5339 5342